EW1963 Weather Reports


time (UTC)temp
F
wind
direction
speed
knots
gust
knots
rain 1hr
in
rain 24hr
in
rain mn
in
humidity
%
barometer
mb
20260506195706 73 14 0.0 3.5 0.00 0.00 0.00 75 1009.8
20260506195207 74 25 0.0 3.5 0.00 0.00 0.00 77 1009.6
20260506194705 75 342 0.0 3.5 0.00 0.00 0.00 78 1009.6
20260506194207 75 299 0.0 3.5 0.00 0.00 0.00 80 1009.6
20260506193706 75 21 0.0 4.3 0.00 0.00 0.00 78 1009.5
20260506193206 76 1 0.0 4.3 0.00 0.00 0.00 76 1009.5
20260506192706 76 17 0.0 4.3 0.00 0.00 0.00 77 1009.4
20260506192207 76 6 0.0 2.6 0.00 0.00 0.00 76 1009.4
20260506191706 76 6 0.0 2.6 0.00 0.00 0.00 76 1009.5
20260506191205 76 355 0.0 2.6 0.00 0.00 0.00 75 1009.5
20260506190706 77 12 0.0 1.7 0.00 0.00 0.00 75 1009.8
20260506190207 77 12 0.0 1.7 0.00 0.00 0.00 76 1009.6
20260506185706 77 18 0.0 3.5 0.00 0.00 0.00 74 1009.6
20260506185205 78 351 0.0 3.5 0.00 0.00 0.00 79 1009.5
20260506184706 77 339 0.0 3.5 0.00 0.00 0.00 75 1009.4
20260506184207 76 15 0.0 3.5 0.00 0.00 0.00 76 1009.5
20260506183706 76 15 0.0 0.0 0.00 0.00 0.00 78 1009.5
20260506182706 75 337 0.0 1.7 0.00 0.00 0.00 78 1009.8
20260506182207 74 337 0.0 1.7 0.00 0.00 0.00 79 1009.8
20260506181706 74 331 0.0 2.6 0.00 0.00 0.00 78 1009.8
20260506181206 74 340 0.0 2.6 0.00 0.00 0.00 81 1009.8
20260506180705 74 342 0.0 2.6 0.00 0.00 0.00 80 1009.8
20260506180207 74 342 0.0 0.9 0.00 0.00 0.00 80 1009.6
20260506175706 73 342 0.0 0.9 0.00 0.00 0.00 79 1009.5
20260506174706 72 7 0.0 0.0 0.00 0.00 0.00 82 1009.6
20260506174207 72 21 0.0 0.0 0.00 0.00 0.00 81 1009.8
20260506173206 71 20 0.0 6.1 0.00 0.00 0.00 83 1010.0
20260506172706 71 28 0.0 0.0 0.00 0.00 0.00 86 1010.0
20260506172207 70 331 0.0 0.0 0.00 0.00 0.00 85 1009.9
20260506171707 69 324 0.0 0.0 0.00 0.00 0.00 86 1009.9
20260506171206 69 325 0.0 0.0 0.00 0.00 0.00 86 1009.9
20260506010206 83 221 0.0 0.0 0.00 0.00 0.00 77 1004.4
20260506005706 83 221 0.0 0.0 0.00 0.00 0.00 77 1004.4
20260506005206 83 221 0.0 0.0 0.00 0.00 0.00 77 1004.4
20260506004707 83 221 0.0 0.0 0.00 0.00 0.00 77 1004.4
20260506004207 83 221 0.0 3.5 0.00 0.00 0.00 76 1004.2
20260506003706 83 221 0.0 3.5 0.00 0.00 0.00 76 1004.2
20260506003206 83 221 0.0 3.5 0.00 0.00 0.00 75 1004.2
20260506002706 83 221 0.0 0.0 0.00 0.00 0.00 75 1004.2
20260506001705 83 221 0.0 0.0 0.00 0.00 0.00 76 1004.2
20260506001206 83 218 0.0 0.0 0.00 0.00 0.00 76 1004.1
20260506000706 83 218 0.0 0.0 0.00 0.00 0.00 76 1004.1
20260506000207 83 218 0.0 0.9 0.00 0.00 0.00 76 1004.1
20260505235706 83 218 0.0 0.9 0.00 0.00 0.00 75 1004.1
20260505235206 83 218 0.0 1.7 0.00 0.00 0.00 75 1004.0
20260505234706 83 218 0.0 1.7 0.00 0.00 0.00 75 1004.0
20260505234207 83 218 0.0 0.9 0.00 0.00 0.00 75 1003.9
20260505233706 83 218 0.0 0.0 0.00 0.00 0.00 75 1003.9
20260505232705 84 218 0.0 1.7 0.00 0.00 0.00 74 1004.0
20260505232210 84 218 0.0 4.3 0.00 0.00 0.00 74 1004.0
20260505231707 84 220 0.0 4.3 0.00 0.00 0.00 74 1003.9
20260505231206 84 220 0.0 4.3 0.00 0.00 0.00 73 1004.0
20260505230207 84 232 0.0 4.3 0.00 0.00 0.00 73 1003.7
20260505225706 84 222 0.0 4.3 0.00 0.00 0.00 73 1003.6
20260505224207 84 219 0.0 4.3 0.00 0.00 0.00 73 1003.6
20260505223206 85 213 0.0 4.3 0.00 0.00 0.00 72 1003.6
20260505222705 85 211 0.0 4.3 0.00 0.00 0.00 71 1003.6
20260505222206 85 212 0.0 4.3 0.00 0.00 0.00 71 1003.6
20260505221706 85 209 0.0 3.5 0.00 0.00 0.00 71 1003.6
20260505221206 85 208 0.0 4.3 0.00 0.00 0.00 71 1003.7
20260505220705 85 205 0.9 5.2 0.00 0.00 0.00 71 1003.7
20260505220207 85 203 0.9 5.2 0.00 0.00 0.00 70 1003.9
20260505215707 85 215 0.9 5.2 0.00 0.00 0.00 71 1004.0
20260505215206 85 207 0.9 4.3 0.00 0.00 0.00 72 1004.2
20260505214707 85 215 0.9 4.3 0.00 0.00 0.00 72 1004.2
20260505214207 84 215 0.9 4.3 0.00 0.00 0.00 72 1004.1
20260505213706 85 215 0.0 4.3 0.00 0.00 0.00 73 1004.3
20260505213206 84 214 0.0 4.3 0.00 0.00 0.00 73 1004.4
20260505212707 84 214 0.0 4.3 0.00 0.00 0.00 74 1004.4
20260505212206 84 214 0.0 4.3 0.00 0.00 0.00 73 1004.4
20260505211705 84 213 0.0 4.3 0.00 0.00 0.00 74 1004.3
20260505211207 84 213 0.0 4.3 0.00 0.00 0.00 73 1004.4
20260505210706 84 215 0.0 5.2 0.00 0.00 0.00 74 1004.4
20260505210207 84 215 0.0 5.2 0.00 0.00 0.00 73 1004.5
20260505205706 85 214 0.9 5.2 0.00 0.00 0.00 71 1004.5
20260505205206 85 211 0.9 5.2 0.00 0.00 0.00 72 1004.5
20260505204706 84 211 0.9 5.2 0.00 0.00 0.00 72 1004.7
20260505204207 84 211 0.9 4.3 0.00 0.00 0.00 73 1004.8
20260505203706 83 225 0.9 5.2 0.00 0.00 0.00 74 1005.1
20260505203206 83 209 0.9 6.1 0.00 0.00 0.00 74 1005.2
20260505202706 83 223 0.9 6.1 0.00 0.00 0.00 74 1005.4
20260505202207 83 213 0.9 6.1 0.00 0.00 0.00 74 1005.3
20260505201705 83 211 0.9 2.6 0.00 0.00 0.00 73 1005.4
20260505201206 83 281 0.0 6.1 0.00 0.00 0.00 74 1005.6
20260505200706 83 218 0.0 6.1 0.00 0.00 0.00 74 1005.6